Regional Weather Roundup
Issued by NWS

Home | Current Version | Previous Version | Text Only | Print | Product List | Glossary Off
Versions: 1 2 3 4 5 6 7 8 9 10 11 12 13 14 15 16 17 18 19 20 21 22 23 24 25 26 27 28 29 30 31 32 33 34 35 36 37 38 39 40 41 42 43 44 45 46 47 48 49 50

000
ASUS43 KDTX 250910
RWRMI
MICHIGAN HOURLY REGIONAL WEATHER ROUNDUP
NATIONAL WEATHER SERVICE DETROIT/PONTIAC MI
500 AM EDT TUE APR 25 2017

NOTE: "FAIR" INDICATES FEW OR NO CLOUDS BELOW 12,000 FEET WITH NO
SIGNIFICANT WEATHER AND/OR OBSTRUCTION TO VISIBILITY.

MIZ047>049-052>055-059>063-066>070-074>076-081>083-251000-
SOUTHEAST LOWER MICHIGAN

CITY           SKY/WX    TMP DP  RH WIND       PRES   REMARKS
ADRIAN         CLOUDY    48  47  96 NE3       29.86S
ALMA           CLEAR     47  42  84 E7        29.86S
ANN ARBOR      CLOUDY    49  44  83 NE3       29.86S
BAD AXE        CLOUDY    46  36  68 E7        29.91F
CARO           CLOUDY    47  38  68 E7        29.89S
DETROIT CITY   CLOUDY    51  44  77 E6        29.89R
DETROIT        CLOUDY    51  43  74 E5        29.89R
FLINT          CLOUDY    50  41  71 E8        29.87S
GROSSE ILE     CLOUDY    48  43  82 E5        29.87R
HILLSDALE      CLOUDY    52  45  76 SE8       29.83S
HOWELL         CLOUDY    52  40  65 SE9       29.85S

CITY           SKY/WX    TMP DP  RH WIND       PRES   REMARKS
JACKSON        CLOUDY    52  46  80 SE12      29.83F
LAMBERTVILLE   CLOUDY    51  48  89 CALM      29.85S
LANSING        PTCLDY    52  42  69 SE9       29.84F
LAPEER         CLOUDY    48  38  66 SE6       29.89S
MASON          CLOUDY    52  46  78 SE7       29.84F
MONROE         CLOUDY    51  46  85 E6        29.86R
MT. CLEMENS    CLOUDY    49  44  82 NE3       29.88R
PONTIAC        CLOUDY    50  41  71 E7        29.87S
PORT HOPE        N/A     48  37  65 SE17G24   29.90F
PORT HURON     CLOUDY    48  37  66 E5        29.91R
TRI CITIES     CLOUDY    47  40  76 E9        29.88F
MIDLAND        MOCLDY    49  38  67 E7        29.87S
TROY           CLOUDY    51  40  65 NE5       29.90S
SAGINAW HB     CLOUDY    48  36  61 E7        29.87F
$$
MIZ043>046-050>051-056>058-064>065-071>073-077>080-251000-
SOUTHWEST LOWER MICHIGAN

CITY           SKY/WX    TMP DP  RH WIND       PRES   REMARKS
BATTLE CREEK   CLOUDY    53  46  77 E6        29.82S
BENTON HARBOR  CLEAR     54  43  66 SE9       29.77S
BIG RAPIDS     CLOUDY    45  39  79 S6        29.83F
COLDWATER      CLEAR     52  46  82 SE7       29.82S
FREMONT        FAIR      51  39  63 E7        29.81R
HOLLAND        CLEAR     54  44  69 SE10      29.80S
GRAND RAPIDS   CLEAR     51  44  77 E8        29.82S
IONIA          FAIR      49  41  74 E7        29.83S
KALAMAZOO      CLEAR     52  43  71 SE5       29.81S
LUDINGTON      PTCLDY    52  42  69 SE9       29.78S
MARSHALL       CLOUDY    53  47  80 SE6       29.82S
MOUNT PLEASANT PTCLDY    45  40  84 E5        29.85S
MUSKEGON       PTCLDY    52  39  61 E10       29.79S
SOUTH HAVEN    CLEAR     53  43  70 SE6       29.79R
$$
MIZ016>042-251000-
NORTHERN LOWER MICHIGAN

CITY           SKY/WX    TMP DP  RH WIND       PRES   REMARKS
ALPENA         CLEAR     41  38  89 SE7       29.93S
BEAVER ISLAND  PTCLDY    42  37  81 E10       29.84R
BELLAIRE       PTCLDY    53  37  54 CALM      29.85S
CADILLAC       CLOUDY    42  38  85 E6        29.84S
CHARLEVOIX     CLOUDY    48  37  66 SE6       29.87S
FRANKFORT      CLOUDY    56  40  54 SE10G16   29.78S
GAYLORD        CLOUDY    44  33  65 SE7       29.87S
GRAYLING       CLOUDY    37  34  87 CALM      29.88R
HARBOR SPRINGS PTCLDY    42  35  76 E13       29.86F
HOUGHTON LAKE  CLOUDY    46  37  71 SE8       29.87S
MANISTEE       CLOUDY    53  41  63 E9        29.78F
OSCODA         CLOUDY    43  37  78 CALM      29.91F
PELLSTON       CLOUDY    42  34  73 SE6       29.88F
ROGERS CITY    CLOUDY    39  36  88 E6        29.93S WCI  35
TRAVERSE CITY  PTCLDY    51  38  60 VRB6      29.81F
$$
MIZ007>008-015-251000-
EASTERN UPPER MICHIGAN

CITY           SKY/WX    TMP DP  RH WIND       PRES   REMARKS
KINROSS        PTCLDY    40  32  73 E15       29.91F WCI  32
MACKINAC ISLAN PTCLDY    37  37  99 E20       29.88F WCI  27
NEWBERRY       CLOUDY    42  35  75 SE13G18   29.84F
S. S. MARIE    PTCLDY    44  30  57 E7        29.92S
MUNISING         N/A     47  36  65 VRB7G17   29.77F
$$
MIZ004>006-011>014-085-251000-
CENTRAL UPPER MICHIGAN

CITY           SKY/WX    TMP DP  RH WIND       PRES   REMARKS
MANISTIQUE     CLOUDY    43  38  82 E10       29.83S
ESCANABA       CLOUDY    46  39  76 E8        29.76F
MENOMINEE      CLOUDY    51  39  63 S7        29.76R
SAWYER-GWINN   CLOUDY    46  38  72 S12       29.75F
$$
MIZ001>003-009>011-084-251000-
WESTERN UPPER MICHIGAN

CITY           SKY/WX    TMP DP  RH WIND       PRES   REMARKS
IRON MOUNTAIN  CLOUDY    43  35  73 SE6       29.73F
HOUGHTON       CLOUDY    45  33  63 E10       29.69F
COPPER HARBOR    N/A     46  36  68 SW10G17   29.72F
IRONWOOD       CLOUDY    55  32  41 S9G18     29.64R
$$

ABBREVIATIONS USED IN REMARKS
   TC - TEMPERATURE IN CELSIUS
  WCI - WIND CHILL INDEX
   HX - HEAT INDEX
  VSB - VISIBILITY





USA.gov is the U.S. government's official web portal to all federal, state and local government web resources and services.